This is the latest recevied weather packets stored in our database for station/object N8DMH-13. If no packets are shown the sender has not sent any weather packets the latest 1 day(s).
| Time | Temp. | Humidity | Pressure | Rain* | Wind** | Luminosity | Snow |
|---|---|---|---|---|---|---|---|
| 1777977988 | 4.44° C | 80% | 1003.5 hPa | 0 mm | 0 m/s | - | - |
| 1777977660 | 4.44° C | 80% | 1003.4 hPa | 0 mm | 0 m/s | - | - |
| 1777977357 | 4.44° C | 81% | 1003.3 hPa | 0 mm | 0 m/s | - | - |
| 1777977027 | 3.89° C | 84% | 1003 hPa | 0 mm | 0 m/s | - | - |
| 1777976697 | 3.89° C | 85% | 1002.8 hPa | 0 mm | 0 m/s | - | - |
| 1777976397 | 3.89° C | 85% | 1002.7 hPa | 0 mm | 0 m/s | - | - |
| 1777976067 | 3.33° C | 84% | 1002.6 hPa | 0 mm | 0 m/s | - | - |
| 1777975767 | 3.89° C | 84% | 1002.5 hPa | 0 mm | 0 m/s | - | - |
| 1777975467 | 3.89° C | 83% | 1002.5 hPa | 0 mm | 0 m/s | - | - |
| 1777975137 | 3.89° C | 83% | 1002.5 hPa | 0 mm | 0 m/s | - | - |
| 1777974836 | 3.89° C | 83% | 1002.4 hPa | 0 mm | 0 m/s | - | - |
| 1777974537 | 4.44° C | 82% | 1002.3 hPa | 0 mm | 0 m/s | - | - |
| 1777974206 | 4.44° C | 81% | 1002.3 hPa | 0 mm | 0 m/s | - | - |
| 1777973876 | 4.44° C | 81% | 1002.2 hPa | 0 mm | 0 m/s | - | - |
| 1777973576 | 4.44° C | 80% | 1002.1 hPa | 0 mm | 0 m/s | - | - |
| 1777973246 | 5° C | 80% | 1002.1 hPa | 0 mm | 0 m/s | - | - |
| 1777972916 | 5° C | 79% | 1002.1 hPa | 0 mm | 0 m/s | - | - |
| 1777972616 | 5.56° C | 79% | 1002 hPa | 0 mm | 0 m/s | - | - |
| 1777972316 | 5.56° C | 78% | 1002 hPa | 0 mm | 0 m/s | - | - |
| 1777971986 | 5.56° C | 77% | 1001.9 hPa | 0 mm | 0 m/s | - | - |
| 1777971686 | 5.56° C | 77% | 1002 hPa | 0 mm | 0 m/s | - | - |
| 1777971386 | 5.56° C | 77% | 1001.8 hPa | 0 mm | 0 m/s | - | - |
| 1777971085 | 5.56° C | 76% | 1001.8 hPa | 0 mm | 0 m/s | - | - |
| 1777970785 | 5.56° C | 76% | 1001.6 hPa | 0 mm | 0 m/s | - | - |
| 1777970485 | 5.56° C | 77% | 1001.7 hPa | 0 mm | 0 m/s | - | - |
* Rain latest hour (hover to see other rain measurements)
** Current wind speed in m/s (hover to see current wind gust speed)